Theta_e
340 338 339 339 339 339 338 337 336 334 333 333 331 323 320 323 325 326 326 326 326 327 328 330 329 325 323 324 324 325 327 327 325 323 321 319 317 315 314 315 317 318 322 324 326 329 329 328 326 320 319 325 327 328 329 328 327 325 325 326 327 326
337 338 337 339 339 338 338 338 337 335 334 334 332 325 320 323 324 324 324 324 325 325 327 328 327 325 323 322 323 325 327 327 326 323 321 319 317 317 316 316 315 314 320 323 322 322 323 323 324 322 319 322 327 328 327 327 326 325 327 329 329 327
332 335 336 337 337 337 337 337 337 336 334 335 333 327 320 321 324 322 322 323 324 325 326 327 327 326 326 324 323 325 327 327 327 325 322 319 317 318 315 314 312 311 317 321 319 319 320 319 319 321 319 318 323 328 328 327 328 328 328 329 328 327
327 331 334 334 334 336 336 336 337 336 335 335 334 330 323 323 326 325 325 325 326 326 326 327 329 329 329 328 326 326 328 327 327 325 323 320 318 319 316 312 311 311 314 316 318 322 325 324 321 319 319 317 319 324 326 327 327 328 328 327 326 326
324 327 330 330 331 334 335 335 337 337 336 335 335 333 328 326 328 330 331 330 328 328 328 329 332 332 331 331 330 329 329 328 327 326 324 322 320 320 319 316 313 315 317 317 320 326 328 329 329 324 317 316 316 315 320 325 326 327 327 327 328 328
325 327 326 328 330 330 332 333 336 337 336 335 335 334 331 328 328 331 333 332 332 331 331 332 333 334 333 332 332 331 331 329 328 326 325 323 322 321 322 322 320 323 325 324 326 328 328 329 332 329 317 316 321 316 317 324 325 326 328 329 330 329
325 327 326 330 330 326 329 332 335 336 336 336 335 335 333 328 327 331 334 334 334 333 333 333 333 334 334 332 333 333 332 331 330 327 327 326 324 322 323 325 325 326 327 328 328 328 328 329 332 330 320 321 328 325 322 326 326 327 330 330 331 331
324 328 329 332 331 327 328 330 333 336 336 336 335 335 334 330 326 330 333 334 335 334 333 333 334 334 334 333 333 333 333 332 331 330 328 328 325 324 325 327 327 327 327 327 327 326 327 329 331 331 325 324 328 329 329 329 327 328 331 330 331 330
323 328 329 333 332 328 328 329 332 335 336 336 336 335 334 333 329 329 332 334 334 334 334 334 334 334 333 334 333 334 334 333 332 331 331 329 328 328 328 329 328 328 329 328 327 325 325 328 329 329 329 328 329 330 331 328 327 330 331 330 329 329
321 327 327 330 330 327 327 328 330 332 333 335 336 335 334 334 333 331 332 334 334 333 333 333 334 333 333 334 333 333 333 334 333 332 333 330 330 331 331 330 329 329 329 329 329 327 326 326 325 326 328 330 330 331 331 329 328 330 331 331 330 329
316 325 326 328 327 325 326 327 329 330 331 332 335 335 334 334 334 332 331 333 334 333 332 333 333 333 333 333 333 332 332 334 333 333 333 330 331 333 332 331 330 330 330 329 331 330 328 326 325 325 327 330 331 330 331 330 329 330 331 331 331 330
313 318 323 326 327 326 324 324 327 328 329 330 332 333 334 334 333 333 332 332 333 333 332 332 332 333 334 334 332 332 334 334 332 333 334 331 331 332 332 332 331 330 330 330 332 332 328 327 327 326 325 327 330 330 330 331 330 330 330 330 330 330
313 313 315 320 323 325 324 324 324 325 327 327 327 329 330 332 333 333 333 333 333 333 332 331 332 333 333 333 333 332 331 331 331 333 334 332 331 332 332 332 332 331 331 331 332 332 329 327 328 327 324 325 328 329 329 330 330 330 330 329 329 329
311 311 310 312 317 320 320 320 322 324 325 324 323 325 327 328 329 328 328 330 331 331 332 332 331 333 332 332 333 332 329 328 330 333 334 333 331 332 332 332 332 332 331 331 331 331 331 328 328 329 326 325 327 328 328 329 329 330 330 329 329 328
307 307 307 309 313 315 314 314 316 318 320 320 321 323 324 324 323 322 322 324 325 324 328 331 332 333 332 331 331 331 330 329 330 333 333 333 332 332 333 332 332 332 331 331 331 331 331 330 329 329 326 323 326 328 327 328 328 329 329 329 330 330
306 306 306 307 310 311 310 308 308 309 311 315 318 319 320 321 321 322 323 322 322 320 320 326 331 333 332 331 331 331 332 330 330 331 332 333 332 332 333 332 332 332 331 331 331 331 331 330 329 328 325 322 324 327 327 327 327 329 330 330 330 329
306 306 305 306 307 308 307 307 306 306 308 312 314 314 314 318 321 322 323 323 323 321 319 320 324 329 332 331 331 332 332 332 332 331 331 333 333 332 333 333 332 332 332 331 331 331 330 329 329 328 327 325 324 325 326 327 327 328 329 330 330 329
306 306 306 307 308 308 308 309 309 308 308 308 308 310 311 316 320 320 321 323 322 322 321 317 318 323 329 330 331 332 332 332 333 332 332 333 333 333 333 333 333 332 332 332 330 329 329 329 329 329 329 328 327 325 325 325 327 328 329 329 329 330
308 309 309 310 311 311 312 312 312 310 309 308 307 309 310 313 315 314 315 317 318 319 318 315 316 319 324 328 330 331 332 333 333 333 332 332 332 332 333 332 333 333 332 332 330 328 330 331 330 330 329 329 328 328 327 326 326 327 328 329 329 329
310 313 315 316 315 313 313 313 312 312 310 309 307 308 307 308 308 308 309 309 311 314 312 310 312 315 318 322 324 328 331 332 333 333 333 332 330 330 332 332 333 333 333 332 331 331 331 331 331 330 330 330 330 329 328 327 325 324 326 327 328 328
310 314 316 318 318 316 314 311 311 312 311 310 308 307 306 306 305 305 306 306 307 308 308 309 310 311 313 315 316 321 325 327 331 333 333 333 331 330 331 331 333 333 333 332 332 331 331 331 331 330 330 330 331 329 328 327 326 325 324 325 326 327
310 313 314 316 317 316 313 310 310 311 310 310 309 307 307 306 306 305 305 305 305 304 304 306 308 309 311 312 313 315 317 319 324 328 331 332 332 332 332 332 332 332 332 332 332 332 330 330 331 331 330 331 331 329 327 326 326 326 325 324 325 327
310 311 312 314 315 313 311 310 310 310 309 310 309 308 308 307 307 306 306 305 305 305 305 305 306 308 309 313 314 313 314 317 321 324 326 329 331 332 332 332 332 331 331 331 332 332 331 331 331 331 331 332 331 330 327 327 326 326 327 326 325 326
310 311 312 313 313 311 310 310 310 309 310 310 310 309 308 308 307 307 306 306 305 304 305 305 306 307 309 312 314 315 315 316 320 323 324 326 328 329 329 329 330 331 331 332 332 332 332 332 331 331 331 332 331 331 330 328 328 327 328 327 325 325
310 312 312 312 311 311 311 310 310 310 312 312 311 310 309 308 307 307 306 306 305 304 303 304 305 305 308 310 312 314 316 316 317 320 323 324 325 326 326 326 325 326 327 329 330 331 332 332 331 332 333 332 332 331 331 330 329 329 329 328 327 327
310 312 313 312 311 312 312 311 311 311 312 312 312 312 310 308 308 307 306 306 306 305 304 304 304 304 305 307 308 310 314 315 315 316 319 321 322 324 325 325 325 324 323 322 323 324 328 330 331 332 332 332 332 331 331 330 329 329 329 329 329 328
311 312 313 313 312 313 312 312 311 312 313 313 314 314 311 308 308 308 307 307 306 306 305 305 305 303 303 304 306 308 309 312 313 313 314 316 318 320 323 325 325 325 324 323 322 321 321 324 327 330 331 332 332 332 332 331 330 330 330 329 329 329
311 312 313 313 313 313 312 312 312 312 313 314 314 313 311 309 309 308 308 307 307 306 306 306 305 305 304 303 304 305 306 307 308 309 310 311 312 314 318 320 323 325 325 325 325 323 321 320 321 324 326 328 331 332 332 332 331 330 329 330 330 329
311 312 313 313 313 313 313 313 312 312 313 313 312 312 311 310 309 309 308 307 307 307 306 306 306 306 305 305 304 304 304 304 305 305 306 307 308 309 310 313 317 321 323 324 325 325 325 324 323 322 322 323 324 327 330 332 332 331 330 329 329 329
312 312 312 312 313 314 314 313 313 313 313 312 313 313 311 310 310 309 308 308 307 307 307 307 306 306 306 306 306 305 305 305 305 304 304 305 305 306 307 309 311 315 318 321 323 323 324 325 325 324 324 323 321 322 325 328 330 331 332 330 330 329
315 313 312 312 312 314 314 313 312 313 313 313 313 313 312 311 310 309 308 308 308 307 307 307 306 306 306 306 306 306 306 305 305 305 305 304 304 304 305 306 307 309 312 316 319 320 322 323 325 325 326 326 325 323 324 324 323 326 331 331 330 329
318 315 313 312 312 314 315 314 313 313 314 313 313 313 312 311 309 309 309 308 307 307 307 307 307 306 307 307 306 306 306 305 305 305 304 305 304 304 304 304 305 306 308 311 314 317 318 320 322 322 323 325 326 325 325 324 322 324 328 330 329 329
320 317 314 313 311 313 315 314 313 313 314 313 313 313 312 310 309 309 309 308 307 308 308 307 306 307 306 307 306 306 305 305 305 305 304 304 304 304 303 303 303 303 305 307 311 314 314 315 317 319 320 322 324 325 325 326 325 325 326 328 328 328
321 318 315 313 312 312 313 314 313 313 314 313 313 313 312 310 309 309 309 308 308 308 307 307 306 306 306 306 306 306 305 305 305 304 304 304 303 302 302 302 302 302 303 304 308 312 313 313 315 317 318 319 321 323 325 326 326 326 326 326 327 327
322 320 316 314 313 312 312 313 314 313 313 313 313 313 313 312 310 309 309 308 308 308 307 306 306 306 306 306 306 306 305 305 304 304 304 303 302 302 302 302 302 302 302 302 303 308 311 312 313 315 316 317 319 321 323 324 326 326 327 327 327 327
322 319 316 315 314 313 312 312 313 314 313 312 312 312 312 312 311 310 309 308 308 308 307 307 306 306 306 306 306 306 305 304 304 304 304 303 303 303 303 303 302 302 301 301 302 304 307 309 311 313 315 316 317 318 319 320 323 324 326 327 328 328
322 320 317 315 314 312 312 313 313 313 312 311 310 311 310 311 311 310 310 309 309 308 307 307 306 306 306 306 306 305 305 304 304 304 304 303 303 303 304 304 303 303 302 301 302 303 304 306 309 311 313 315 317 317 316 316 318 320 323 325 326 327
Wind_Speed
10 12 13 14 13 13 12 12 11 10 9 8 7 7 8 9 9 8 8 8 7 7 7 8 8 7 6 8 8 8 7 6 5 4 3 2 2 2 3 5 5 6 7 8 9 8 9 10 12 17 22 22 20 18 16 13 11 8 6 6 5 4
7 9 10 12 12 12 12 12 12 12 11 9 8 7 8 9 9 9 8 8 8 8 8 8 8 7 8 8 9 8 8 6 5 5 3 2 1 2 2 5 6 7 8 8 7 7 6 7 9 13 19 22 20 19 15 11 10 7 5 4 4 5
7 7 7 8 10 11 13 13 13 13 12 10 10 9 9 9 8 8 8 8 8 8 8 8 8 8 9 9 9 9 8 7 6 5 4 3 1 1 1 4 7 9 9 8 9 9 7 7 7 9 14 20 20 20 15 8 7 5 5 3 4 5
7 7 6 5 6 9 12 14 14 14 13 12 11 10 9 8 7 7 8 7 7 7 8 8 8 9 10 10 10 10 10 8 7 7 6 4 3 1 1 2 5 9 9 10 12 12 11 10 7 5 9 17 21 20 14 8 6 4 5 3 4 5
5 5 5 3 2 5 9 11 13 15 14 14 13 11 10 9 9 9 8 8 8 9 9 9 9 10 11 10 10 10 11 10 8 8 7 6 5 3 2 1 3 8 10 12 12 10 10 11 8 5 6 15 19 20 15 10 7 5 5 4 4 6
6 4 4 4 0 2 5 7 11 15 15 15 14 13 12 12 12 12 11 10 10 10 9 9 9 9 10 10 10 11 12 11 10 9 8 7 6 4 2 4 7 10 11 10 8 6 7 9 7 6 5 15 15 17 17 10 7 7 6 4 5 7
10 5 5 4 1 2 3 4 8 13 14 14 16 16 15 14 14 13 13 13 11 10 10 9 9 9 10 11 10 11 12 12 11 11 10 8 6 4 2 6 9 10 10 9 7 4 4 8 6 4 5 14 12 12 14 8 8 9 7 5 6 8
13 8 8 7 1 2 3 2 6 11 13 13 16 18 17 15 14 14 14 14 13 11 11 9 9 11 12 12 10 11 13 13 13 12 11 9 7 5 4 7 9 9 9 9 8 6 4 5 4 1 4 10 9 8 8 7 11 9 7 8 8 9
15 10 9 10 6 5 4 3 3 8 11 11 13 15 16 16 15 15 15 15 14 13 12 9 9 11 11 12 11 10 12 14 14 13 11 10 8 7 6 8 9 9 8 8 8 8 5 1 1 4 4 6 6 6 5 6 12 10 9 10 10 11
17 13 10 11 10 8 7 6 5 5 8 10 11 13 15 16 15 16 15 15 15 14 13 11 9 10 10 10 11 9 10 13 15 14 12 12 12 10 8 7 9 9 7 7 6 7 8 5 5 7 8 7 6 7 7 7 11 11 9 10 11 12
18 17 14 13 11 10 8 7 7 6 6 8 10 11 14 15 15 16 15 15 14 12 12 12 10 10 10 10 10 8 9 11 13 14 14 14 14 12 11 11 10 10 9 8 4 4 9 9 7 7 9 11 10 9 10 10 10 11 10 9 10 10
17 19 18 15 13 12 10 7 7 7 6 7 8 8 10 12 14 16 16 15 13 11 12 12 11 10 11 12 10 9 8 8 8 12 15 15 15 14 14 14 12 12 10 9 7 6 10 12 9 8 8 9 12 11 10 10 10 11 11 11 11 11
15 15 17 16 15 14 13 10 8 7 8 8 8 8 8 9 10 12 14 13 12 12 12 13 13 13 12 13 12 10 8 7 6 11 14 16 17 16 16 14 12 13 12 11 10 6 10 15 10 9 9 8 10 10 9 10 12 13 13 12 13 13
13 12 11 13 15 15 15 14 12 10 9 8 7 7 6 5 5 6 8 10 10 10 12 13 15 15 14 14 14 12 11 9 9 10 13 16 17 16 17 15 12 14 13 13 11 6 9 15 12 10 10 10 11 10 9 9 11 14 15 14 13 13
11 10 8 10 14 14 12 12 11 11 11 10 9 8 6 5 4 2 3 6 8 8 10 12 15 16 15 14 14 14 13 12 12 11 12 15 17 18 18 16 14 14 15 13 11 9 9 11 11 10 11 11 14 11 9 10 11 14 17 17 13 13
10 9 8 9 12 11 7 5 5 8 10 11 11 10 9 9 6 4 3 5 7 7 9 12 14 16 16 15 14 14 14 14 14 13 13 14 16 19 19 16 16 15 15 15 14 13 11 10 9 11 11 9 13 14 11 11 12 13 16 17 14 14
12 12 12 12 11 11 9 8 8 8 9 9 8 6 9 12 10 7 6 6 6 6 8 10 13 15 17 17 15 13 14 15 15 15 16 17 16 17 17 16 16 16 15 15 16 15 13 14 12 12 10 7 9 13 14 14 13 13 14 16 16 17
13 13 13 14 12 11 10 9 9 8 9 7 5 5 9 12 11 10 10 8 8 7 7 8 11 13 14 17 17 14 14 16 16 16 17 18 18 17 16 15 14 15 15 14 15 16 15 16 15 15 14 12 11 11 12 14 16 16 16 18 18 18
14 13 13 14 13 12 11 9 8 7 6 6 6 6 6 8 8 10 11 11 11 10 9 9 10 11 12 15 17 16 16 17 17 17 19 18 17 17 16 16 15 14 16 16 17 17 17 16 15 17 17 14 14 15 14 13 15 19 20 20 20 18
14 14 14 14 14 13 11 8 6 5 4 5 5 5 4 2 4 5 8 9 10 10 10 10 10 11 12 14 15 15 16 17 17 18 19 17 17 16 15 17 17 17 17 17 17 17 18 19 16 17 17 13 12 15 17 14 13 17 20 20 21 20
14 14 14 14 13 13 10 6 6 5 2 3 4 6 7 4 2 2 6 7 7 8 9 9 9 10 11 12 14 15 16 16 17 17 16 15 17 18 18 18 19 19 19 18 17 17 18 19 18 18 18 17 13 12 16 16 13 14 17 18 20 22
13 13 12 13 14 13 9 6 6 5 1 1 2 6 7 7 7 4 3 5 8 10 9 8 8 8 8 9 11 13 14 15 15 15 14 14 17 20 20 21 21 21 21 20 19 20 20 20 20 19 18 18 16 12 14 16 15 14 16 18 21 23
12 12 10 12 13 12 9 6 6 5 1 0 1 5 9 10 10 9 7 2 4 6 7 7 7 7 7 7 8 10 11 11 12 11 12 14 16 19 19 19 21 22 22 21 20 20 21 21 21 20 18 18 17 14 15 17 17 17 18 18 21 24
13 12 10 12 14 12 10 8 7 5 2 2 3 5 9 10 11 12 10 7 6 5 3 6 8 8 8 9 10 10 10 10 10 9 9 11 13 15 15 15 17 19 21 23 23 22 22 22 22 20 18 16 17 16 17 18 18 19 19 18 18 22
15 14 12 12 12 11 10 8 7 6 4 4 3 4 6 7 9 10 11 10 10 9 5 2 6 8 9 11 12 11 11 11 11 11 11 11 12 12 12 12 13 15 18 21 22 23 24 24 24 23 19 16 15 16 18 18 18 18 18 20 20 21
16 15 14 13 11 10 9 8 7 7 4 4 3 3 2 4 6 8 10 10 11 10 8 6 2 2 6 9 12 13 13 12 12 11 12 13 14 14 13 12 11 12 15 16 17 20 24 26 25 25 24 22 20 19 19 16 15 15 15 19 21 23
17 16 16 15 12 11 10 8 8 7 5 4 5 4 2 3 3 5 7 9 10 11 11 10 9 6 3 3 6 10 12 13 13 12 13 13 14 15 14 12 11 11 12 13 14 18 22 23 23 25 27 27 26 26 25 20 16 12 11 14 17 20
18 17 17 16 14 13 12 10 9 8 7 8 7 6 5 3 2 4 6 7 9 11 11 11 10 9 8 6 4 4 6 8 11 13 14 14 15 15 16 15 14 13 13 13 14 16 19 19 20 24 26 27 28 30 31 29 24 19 16 17 17 17
21 19 17 16 15 14 13 11 11 9 10 11 10 9 7 5 3 3 4 5 7 9 9 9 8 8 8 7 6 6 6 5 6 7 10 12 14 15 16 18 18 17 16 16 16 17 18 19 20 21 22 23 26 28 30 32 30 30 29 27 24 22
24 21 18 17 16 15 14 13 12 11 12 12 11 10 9 7 5 3 3 3 5 7 8 9 8 8 8 8 7 8 8 8 8 7 7 8 10 12 15 17 19 20 20 20 20 20 20 20 21 22 21 21 23 25 27 29 30 33 35 34 32 31
25 23 20 19 17 16 15 15 13 12 12 12 11 11 10 8 7 6 5 4 5 6 7 8 9 9 9 9 10 10 11 11 11 11 10 10 10 11 12 14 17 20 22 23 23 23 23 23 22 23 23 22 24 25 25 27 28 30 34 36 36 36
27 24 22 20 18 18 17 16 15 13 13 13 12 12 11 9 9 9 7 6 5 6 6 7 9 10 10 11 12 12 13 13 14 13 13 14 14 14 14 14 15 18 21 24 25 25 26 26 25 25 24 24 25 26 26 26 27 27 30 33 33 34
29 26 23 21 20 20 19 17 16 15 14 14 14 13 12 12 12 11 9 7 7 6 6 7 8 9 10 11 12 13 14 14 14 15 15 17 18 18 18 17 17 17 19 21 23 25 27 28 27 26 26 26 26 27 27 27 28 28 28 31 31 33
30 27 25 23 22 21 20 18 17 15 15 15 15 15 14 14 14 13 11 10 9 8 7 7 7 8 10 11 13 14 15 16 16 16 17 18 19 18 18 18 19 19 20 21 23 25 27 28 28 27 27 28 28 28 28 27 28 29 29 31 32 33
32 29 27 25 24 22 21 20 18 16 15 15 15 15 15 15 15 14 13 12 11 10 9 9 9 10 11 13 14 15 17 17 18 18 19 20 19 18 16 16 17 19 20 21 23 26 28 29 29 28 28 29 30 30 29 28 27 29 30 31 32 33
32 31 29 27 25 23 22 21 19 17 15 15 15 15 16 17 17 16 15 14 13 12 11 11 11 12 13 14 15 16 17 18 19 20 20 20 20 18 17 16 15 16 19 21 23 25 27 29 30 30 29 29 30 31 32 31 29 28 28 30 31 33
33 32 30 28 26 24 23 21 20 17 15 14 14 14 15 16 17 18 17 16 14 13 13 13 13 14 15 15 16 17 18 19 20 21 21 21 21 19 18 17 17 17 16 17 21 24 26 27 28 29 29 28 27 30 33 33 33 31 30 29 30 31
Wind_Direction
177 184 186 187 189 188 189 192 192 193 193 197 197 193 190 187 189 193 199 203 207 203 196 193 196 206 207 204 213 214 212 215 217 222 232 252 287 306 270 233 215 193 171 173 186 192 183 164 151 151 158 156 149 146 150 165 169 165 193 221 230 231
161 173 179 188 195 195 198 199 197 194 195 197 196 196 190 188 191 196 201 201 205 205 204 207 211 214 206 204 207 207 214 218 217 218 218 241 304 340 298 239 215 191 176 171 172 179 177 165 158 157 162 163 154 143 142 157 161 169 190 201 247 260
137 146 162 184 198 202 204 204 203 196 195 197 196 196 191 189 191 194 196 195 202 205 209 213 216 215 205 207 208 205 211 215 218 218 213 214 233 332 320 252 217 186 177 167 151 143 125 121 147 162 169 171 164 148 138 148 150 163 184 190 264 269
139 134 141 170 189 200 205 206 206 199 197 199 198 198 191 183 183 183 185 192 201 204 211 215 216 217 211 209 211 209 208 209 213 213 215 212 209 209 118 246 216 183 173 162 148 135 112 94 98 130 170 178 177 166 155 165 165 168 189 210 271 277
153 143 138 139 166 199 208 210 206 201 199 198 199 201 189 177 181 185 186 192 200 204 213 218 219 222 220 215 211 212 208 206 210 209 216 218 215 213 138 105 169 156 148 154 152 140 116 92 66 59 158 179 186 184 177 178 184 200 215 231 267 278
152 161 154 131 112 226 219 219 205 200 200 200 200 200 192 184 187 191 192 197 203 205 212 222 225 225 226 222 218 215 208 205 208 208 213 223 225 217 150 109 125 127 121 133 142 139 109 91 66 43 151 172 175 184 183 181 200 226 238 240 256 268
158 168 168 143 303 251 226 220 200 198 200 204 203 201 199 194 193 195 198 205 213 212 209 220 231 238 235 229 229 221 213 210 209 208 209 217 223 221 176 125 126 121 114 111 112 129 96 80 83 53 154 169 164 176 177 184 217 232 242 237 246 260
159 151 157 154 159 208 213 207 203 206 203 206 203 202 202 200 201 202 204 209 217 220 214 215 231 247 246 231 230 223 217 215 213 211 207 209 214 213 179 143 139 133 125 116 109 123 102 74 101 93 161 166 170 172 166 199 223 231 243 241 250 261
159 138 140 157 160 163 167 145 178 207 208 210 206 205 205 204 207 207 209 211 215 225 227 222 221 237 240 226 222 223 221 219 217 215 206 206 198 181 170 158 154 151 143 138 128 121 124 109 253 252 217 163 168 175 167 223 226 233 253 256 265 271
169 152 140 154 164 162 151 139 137 173 200 210 209 210 208 208 211 210 212 216 219 224 230 231 217 221 229 219 214 221 228 219 217 216 209 207 193 177 183 185 168 164 161 153 150 140 154 211 271 259 235 210 206 202 209 241 235 234 250 264 274 281
179 176 165 156 159 163 155 156 159 159 175 196 205 210 210 211 216 217 216 225 232 226 223 229 223 221 228 223 211 216 227 217 217 218 211 206 198 191 198 204 192 183 177 167 200 207 188 221 261 261 238 216 210 207 217 241 246 239 245 260 275 286
183 188 187 177 166 161 152 159 177 170 167 181 184 189 203 210 218 223 223 228 234 230 222 226 232 230 230 229 215 209 220 214 217 223 216 206 202 205 207 207 200 194 196 197 223 238 213 227 256 267 254 214 202 200 208 225 243 253 253 255 267 279
184 193 197 194 189 177 166 171 181 172 169 172 164 171 194 203 212 222 227 228 228 232 227 224 234 235 231 231 218 202 207 208 209 221 219 210 207 212 215 211 193 186 196 203 203 205 215 229 251 263 250 217 207 210 207 214 233 251 258 259 263 267
184 193 196 193 193 190 187 192 194 185 184 181 164 169 187 189 195 213 230 229 224 233 231 224 229 232 230 231 224 211 208 209 211 218 217 214 215 216 220 219 197 183 185 192 198 199 217 227 237 249 248 224 214 222 222 222 232 242 255 265 265 260
177 182 184 178 180 185 193 202 203 197 196 191 179 177 184 187 184 192 238 231 222 228 228 226 228 230 230 228 227 221 216 214 215 223 216 212 216 219 226 220 203 192 182 187 207 213 210 213 221 245 262 232 208 212 224 227 231 241 253 258 260 258
154 152 150 155 166 171 168 163 166 178 181 182 187 186 183 179 171 164 199 220 219 218 216 219 223 227 231 228 225 221 223 221 216 221 219 215 215 220 229 219 205 203 192 197 214 215 206 203 220 250 267 238 204 204 212 218 222 236 247 246 252 261
134 130 126 131 142 143 126 112 114 132 150 161 182 185 168 166 168 176 188 206 215 217 218 216 216 221 227 229 226 218 222 225 217 214 218 221 218 218 222 213 207 209 204 207 213 210 207 211 230 250 258 255 223 208 208 212 213 220 232 239 253 262
128 127 127 125 126 125 112 104 101 109 128 121 122 153 162 165 178 196 200 211 219 224 232 221 215 217 220 224 227 225 224 225 222 219 220 222 220 219 218 214 213 212 209 209 204 196 200 216 233 240 245 256 251 233 222 219 217 216 221 231 245 257
127 125 125 118 113 110 100 95 85 82 107 85 84 127 156 173 192 212 215 224 228 229 231 219 211 213 215 219 225 230 230 229 227 224 223 223 224 225 224 224 224 216 210 207 200 192 202 223 231 226 230 242 245 247 247 236 226 222 221 225 232 246
129 123 119 117 115 115 109 106 99 85 83 54 54 84 93 153 206 235 239 238 238 239 234 219 211 213 218 222 224 228 231 232 232 230 227 222 225 234 234 232 231 226 220 215 208 202 212 227 230 223 223 225 235 247 248 245 240 233 229 228 226 232
138 133 131 132 133 135 136 140 137 132 97 35 27 55 60 47 37 276 256 251 250 252 241 224 218 218 223 229 232 234 236 237 236 240 241 227 221 231 234 234 233 231 231 229 224 219 221 229 234 234 228 225 235 246 240 240 249 249 244 237 228 225
155 152 146 145 149 152 160 159 148 155 115 47 29 48 49 39 36 15 299 255 249 254 253 247 237 226 224 230 235 239 242 245 242 242 249 241 226 225 227 230 233 233 235 235 234 232 232 235 239 241 239 237 241 239 228 231 243 257 263 249 231 224
176 175 163 156 168 176 184 176 166 177 114 139 159 48 39 33 28 19 16 325 256 261 266 268 258 240 225 223 229 232 232 237 240 239 243 242 235 231 229 230 233 235 238 239 238 236 235 237 239 240 243 245 243 235 226 224 233 250 266 261 238 227
189 191 182 172 185 194 196 188 178 176 131 179 180 50 34 30 25 22 25 19 11 7 309 264 257 247 231 228 230 230 227 223 221 223 227 232 236 238 239 241 240 238 240 242 242 241 240 240 241 239 241 246 245 241 236 231 238 248 257 259 247 236
195 197 197 193 197 196 195 192 182 174 154 167 153 58 37 30 26 25 28 24 22 22 10 283 254 249 238 237 238 238 240 235 225 219 217 221 227 232 238 246 249 245 243 244 246 246 245 245 246 243 240 242 240 242 243 242 247 252 249 249 250 246
201 198 201 208 211 203 202 199 188 181 170 170 155 119 48 19 26 27 29 28 27 28 31 43 41 266 251 249 248 246 247 248 247 238 228 226 227 230 233 236 244 251 252 253 253 253 249 247 248 247 244 243 239 241 246 243 243 248 245 243 246 249
209 205 206 213 215 211 213 206 195 190 183 187 185 184 237 335 6 15 20 24 25 27 31 39 46 46 24 305 269 257 252 253 257 258 251 242 236 234 233 232 233 244 256 261 262 259 255 253 251 250 248 248 246 245 246 241 235 242 248 239 235 241
215 213 213 215 213 214 221 216 208 203 189 197 214 224 242 270 305 348 3 8 15 22 26 30 32 34 39 32 3 317 283 267 263 264 264 260 253 246 241 237 232 234 242 251 260 264 263 262 259 254 252 252 252 251 251 249 242 242 253 253 241 236
220 220 220 219 216 217 223 224 219 209 198 208 223 230 237 246 257 309 340 353 5 11 15 23 23 18 24 32 30 18 360 337 311 289 279 276 272 266 258 251 244 240 240 241 247 256 261 264 264 263 261 258 257 256 256 255 249 244 249 255 253 246
221 223 225 225 222 222 226 229 225 213 210 219 223 223 235 244 246 267 289 327 347 351 354 1 8 6 4 8 14 13 4 356 349 337 320 305 292 283 275 267 258 251 248 246 246 250 255 258 260 263 266 265 263 261 260 259 254 248 247 249 251 251
222 225 228 229 228 227 229 235 234 225 222 226 226 227 239 249 252 259 268 295 322 335 344 346 347 348 348 349 352 354 353 349 344 339 333 325 313 301 289 280 273 263 256 252 251 252 254 256 258 261 263 263 263 262 262 262 258 254 251 249 249 250
221 225 229 231 232 231 230 235 239 236 231 233 237 240 244 248 250 255 264 282 298 309 323 330 332 335 336 337 338 340 340 338 336 332 331 328 322 314 303 290 281 274 267 260 256 255 256 257 260 263 264 264 263 262 262 263 262 260 258 254 253 252
220 224 229 231 233 234 233 236 240 239 237 239 244 249 246 243 247 253 256 261 269 284 301 313 318 322 323 323 322 323 324 325 326 326 326 324 319 312 302 293 283 274 269 265 261 258 257 257 258 260 263 263 262 263 263 262 260 261 261 258 258 258
220 224 229 231 233 236 238 239 241 241 243 245 250 253 250 245 248 254 255 258 267 276 282 288 295 300 304 309 312 315 318 320 321 321 319 316 313 307 296 288 282 273 264 260 258 258 259 259 256 254 256 258 260 261 264 263 259 258 258 257 257 259
219 222 228 232 233 236 239 241 242 244 247 251 255 256 254 251 252 255 257 261 268 275 279 282 287 292 297 303 309 314 318 319 318 317 317 317 315 311 301 291 285 277 268 259 253 252 255 258 258 256 253 255 259 261 262 263 261 260 258 256 254 254
220 222 227 231 233 236 239 241 243 247 250 252 254 256 255 254 255 257 260 263 266 271 277 282 287 293 297 302 307 311 313 315 315 315 318 321 320 315 308 299 293 284 275 266 259 254 252 253 256 259 257 256 257 261 262 261 262 262 261 260 255 251
219 222 226 230 233 236 238 241 245 247 249 251 253 255 256 255 255 257 261 263 265 269 275 281 286 292 296 300 305 310 313 313 314 317 320 324 323 319 312 304 300 294 284 275 267 261 259 256 254 257 259 259 258 259 261 261 262 262 261 262 260 255